Hourly Data Report for June 11, 2018

LONDON CS
ONTARIO
Current Station Operator: ECCC - MSC

43°02'00.000" N
81°09'00.000" W
278.00 m
6144478
71622
WSN

Download Data

Hourly Data (June 2018)
Hourly Data Report for June 11, 2018
TIME Temp Definition
°C
Dew Point Definition
°C
Rel Hum Definition
%
Wind Dir Definition
10's deg

Wind Spd Definition
km/h
Visibility Definition
km
Stn Press Definition
kPa
Hmdx Definition


Wind Chill Definition


Weather Definition


00:00 15.9 5.1 49 LegendMM LegendMM   98.28     LegendNANA
01:00 14.9 4.2 49 LegendMM LegendMM   98.25     LegendNANA
02:00 14.2 3.7 49 LegendMM LegendMM   98.29     LegendNANA
03:00 13.5 3.1 49 LegendMM LegendMM   98.28     LegendNANA
04:00 13.2 3.2 51 LegendMM LegendMM   98.32     LegendNANA
05:00 13.2 3.5 52 LegendMM LegendMM   98.36     LegendNANA
06:00 14.2 4.1 50 LegendMM LegendMM   98.39     LegendNANA
07:00 16.4 4.7 46 LegendMM LegendMM   98.48     LegendNANA
08:00 18.5 4.3 39 LegendMM LegendMM   98.52     LegendNANA
09:00 19.8 3.4 34 LegendMM LegendMM   98.54     LegendNANA
10:00 21.0 3.9 33 LegendMM LegendMM   98.53     LegendNANA
11:00 22.1 2.8 28 LegendMM LegendMM   98.53     LegendNANA
12:00 23.1 1.6 24 LegendMM LegendMM   98.52     LegendNANA
13:00 23.4 3.0 26 LegendMM LegendMM   98.52     LegendNANA
14:00 24.1 5.0 29 LegendMM LegendMM   98.47     LegendNANA
15:00 24.0 4.1 28 LegendMM LegendMM   98.47     LegendNANA
16:00 23.8 3.5 27 LegendMM LegendMM   98.46     LegendNANA
17:00 23.4 2.8 26 LegendMM LegendMM   98.45     LegendNANA
18:00 22.6 2.8 27 LegendMM LegendMM   98.44     LegendNANA
19:00 21.2 2.5 29 LegendMM LegendMM   98.46     LegendNANA
20:00 19.1 3.2 35 LegendMM LegendMM   98.55     LegendNANA
21:00 16.9 3.8 42 LegendMM LegendMM   98.58     LegendNANA
22:00 16.5 3.3 41 LegendMM LegendMM   98.63     LegendNANA
23:00 15.6 2.2 40 LegendMM LegendMM   98.60     LegendNANA

Notes on Data Quality.

Legend

  • E = Estimated
  • M = Missing
  • NA = Not Available*
  • [empty] = Indicates an unobserved value
Date modified: